Probability
0 0 0 0 0 0 0 0 0 0 0 0 0 0 0 0 0 0 0 0 0 0 0 0 0 0 0 3 3 6 19 26 23 23 23 26 35 29
0 0 0 0 0 0 0 0 0 0 0 0 0 0 0 0 0 0 0 0 0 0 0 0 0 0 0 0 0 3 3 3 3 3 6 16 19 23
0 0 0 0 0 0 0 0 0 0 0 0 0 0 0 0 0 0 0 0 0 0 0 0 0 0 0 0 0 0 0 0 0 0 0 0 3 3
0 0 0 0 0 0 0 0 0 0 0 0 0 0 0 0 0 0 0 0 0 0 0 0 0 0 0 0 0 0 0 0 0 0 0 0 0 0
0 0 0 0 0 0 0 0 0 0 0 0 0 0 0 0 0 0 0 0 0 0 0 0 0 0 0 0 0 0 0 0 0 0 0 0 0 0
0 0 0 0 0 0 0 0 0 0 0 0 0 0 0 0 0 0 0 0 0 0 0 0 0 0 0 0 0 0 0 0 0 0 0 0 0 0
0 0 0 0 0 0 0 0 0 0 0 0 0 0 0 0 0 0 0 0 0 0 0 0 0 0 0 0 0 0 0 0 0 0 0 0 0 0
0 0 0 0 0 0 0 0 0 0 0 0 0 0 0 0 0 0 0 0 0 0 0 0 0 0 0 0 0 0 0 0 0 0 0 0 0 0
0 0 0 0 0 0 0 0 0 0 0 0 0 0 0 0 0 0 0 0 0 0 0 0 0 0 0 0 0 0 0 0 0 0 0 0 0 0
0 0 0 0 0 0 0 0 0 0 0 0 0 0 0 0 0 0 0 0 0 0 0 0 0 0 0 0 0 0 0 0 0 0 0 0 0 0
0 0 0 0 0 0 0 0 0 0 0 0 0 0 0 0 0 0 0 0 0 0 0 0 0 0 0 0 0 0 0 0 0 0 0 0 0 0
0 0 0 0 0 0 0 0 0 0 0 0 0 0 0 0 0 0 0 0 0 0 0 0 0 0 0 0 0 0 0 0 0 0 0 0 0 0
0 0 0 0 0 0 0 0 0 0 0 0 0 0 0 0 0 0 0 0 0 0 0 0 0 0 0 0 0 0 0 0 0 0 0 0 0 0
0 0 0 0 0 0 0 0 0 0 0 0 0 0 0 0 0 0 0 0 0 0 0 0 0 0 0 0 0 0 0 0 0 0 0 0 0 0
0 0 0 0 0 0 0 0 0 0 0 0 0 0 0 0 0 0 0 0 0 0 0 0 0 0 0 0 0 0 0 0 0 0 0 0 0 0
0 0 0 0 0 0 0 0 0 0 0 0 0 0 0 0 0 0 0 0 0 0 0 0 0 0 0 0 0 0 0 0 0 0 0 0 0 0
0 0 0 0 0 0 0 0 0 0 0 0 0 0 0 0 0 0 0 0 0 0 0 0 0 0 0 0 0 0 0 0 0 0 0 0 0 0
0 0 0 0 0 0 0 0 0 0 0 0 0 0 0 0 0 0 0 0 0 0 0 0 0 0 0 0 0 0 0 0 0 0 0 0 0 0
0 0 0 0 0 0 0 0 0 0 0 0 0 0 0 0 0 0 0 0 0 0 0 0 0 0 0 0 0 0 0 0 0 0 0 0 0 0
0 0 0 0 0 0 0 0 0 0 0 0 0 0 0 0 0 0 0 0 0 0 0 0 0 0 0 0 0 0 0 0 0 0 0 0 0 0
0 0 0 0 0 0 0 0 0 0 0 0 0 0 0 0 0 0 0 0 0 0 0 0 0 0 0 0 0 0 0 0 0 0 0 0 0 0
0 0 0 0 0 0 0 0 0 0 0 0 0 0 0 0 0 0 0 0 0 0 0 0 0 0 0 0 0 0 0 0 0 0 0 0 0 0
0 0 0 0 0 0 0 0 0 0 0 0 0 0 0 0 0 0 0 0 0 0 0 0 0 0 0 0 0 0 0 0 0 0 0 0 0 0
Height
5839 5838 5836 5835 5833 5832 5831 5831 5831 5831 5831 5831 5831 5831 5831 5832 5832 5834 5835 5836 5838 5840 5842 5844 5847 5849 5852 5854 5857 5860 5862 5865 5867 5869 5872 5874 5877 5879
5839 5837 5836 5835 5833 5832 5831 5830 5829 5829 5829 5829 5829 5828 5828 5829 5829 5830 5831 5832 5833 5835 5837 5839 5841 5843 5846 5849 5851 5854 5856 5859 5861 5863 5866 5868 5871 5873
5838 5837 5835 5834 5832 5831 5830 5829 5828 5827 5826 5826 5825 5825 5825 5824 5825 5825 5826 5827 5828 5829 5831 5833 5835 5837 5839 5842 5845 5847 5850 5852 5854 5857 5859 5862 5864 5867
5837 5835 5833 5832 5831 5829 5828 5826 5825 5824 5823 5822 5821 5820 5820 5819 5819 5820 5820 5821 5822 5823 5825 5826 5828 5830 5833 5835 5837 5840 5843 5845 5847 5850 5852 5855 5857 5859
5834 5833 5831 5829 5828 5826 5825 5823 5821 5820 5818 5817 5816 5815 5814 5813 5813 5813 5813 5814 5815 5816 5817 5819 5821 5823 5825 5827 5829 5832 5835 5837 5840 5842 5844 5847 5849 5852
5831 5829 5827 5826 5824 5822 5821 5819 5817 5815 5813 5811 5810 5808 5807 5806 5805 5805 5805 5805 5807 5808 5809 5811 5813 5815 5817 5819 5821 5824 5826 5829 5831 5834 5836 5839 5841 5844
5826 5825 5823 5821 5819 5817 5815 5813 5811 5808 5806 5804 5803 5801 5799 5798 5797 5796 5796 5796 5797 5799 5800 5802 5804 5806 5808 5810 5812 5815 5817 5820 5822 5825 5827 5830 5832 5835
5821 5819 5817 5815 5813 5810 5808 5805 5802 5800 5798 5796 5794 5792 5791 5789 5787 5786 5786 5787 5788 5789 5790 5792 5794 5796 5798 5800 5803 5805 5807 5810 5813 5815 5818 5821 5823 5826
5814 5812 5810 5807 5805 5802 5799 5796 5793 5789 5787 5785 5783 5781 5780 5778 5777 5776 5775 5775 5777 5778 5779 5781 5783 5785 5788 5790 5792 5795 5797 5799 5802 5805 5808 5811 5813 5816
5806 5804 5801 5798 5795 5792 5789 5786 5782 5778 5775 5772 5770 5768 5766 5765 5764 5763 5763 5763 5764 5765 5766 5769 5771 5773 5775 5778 5781 5783 5786 5788 5791 5794 5797 5800 5803 5805
5797 5793 5790 5787 5784 5781 5777 5774 5770 5766 5762 5758 5755 5753 5751 5750 5748 5748 5748 5749 5750 5752 5752 5755 5758 5760 5762 5765 5768 5771 5773 5776 5779 5782 5785 5789 5791 5794
5786 5783 5779 5775 5771 5766 5763 5758 5755 5751 5747 5744 5740 5737 5735 5733 5731 5731 5731 5732 5734 5737 5738 5739 5742 5745 5748 5752 5754 5757 5761 5764 5767 5770 5773 5777 5780 5782
5775 5771 5766 5762 5757 5752 5747 5743 5738 5734 5731 5727 5723 5720 5718 5715 5714 5713 5713 5714 5716 5720 5722 5723 5726 5729 5732 5737 5740 5743 5746 5750 5754 5757 5760 5764 5767 5770
5761 5757 5752 5747 5742 5737 5731 5726 5722 5717 5713 5709 5705 5702 5699 5697 5695 5695 5695 5695 5697 5700 5703 5705 5708 5712 5716 5720 5725 5729 5732 5736 5740 5744 5747 5751 5754 5758
5747 5742 5737 5732 5726 5721 5715 5709 5704 5699 5694 5690 5686 5683 5680 5678 5676 5676 5676 5676 5678 5681 5684 5686 5690 5694 5698 5703 5708 5713 5717 5722 5726 5730 5734 5737 5741 5745
5733 5728 5722 5716 5710 5704 5698 5692 5686 5680 5675 5671 5667 5664 5661 5659 5657 5656 5657 5658 5660 5663 5665 5667 5671 5676 5680 5685 5691 5696 5702 5707 5711 5715 5719 5723 5727 5732
5717 5712 5706 5700 5694 5688 5682 5675 5669 5663 5658 5653 5648 5645 5642 5640 5638 5638 5638 5639 5641 5644 5647 5650 5653 5657 5662 5668 5673 5679 5685 5690 5696 5700 5705 5709 5714 5719
5700 5695 5689 5683 5677 5671 5664 5659 5652 5646 5640 5635 5631 5627 5624 5622 5620 5620 5620 5620 5622 5625 5628 5631 5634 5639 5644 5650 5657 5662 5668 5674 5679 5684 5689 5694 5700 5705
5683 5677 5671 5665 5659 5652 5646 5640 5634 5628 5622 5617 5613 5609 5606 5604 5603 5602 5602 5602 5604 5606 5609 5613 5616 5620 5626 5633 5641 5645 5651 5657 5662 5668 5674 5680 5686 5691
5666 5659 5653 5646 5640 5633 5627 5621 5615 5610 5605 5600 5596 5592 5588 5586 5585 5585 5585 5585 5586 5588 5591 5595 5598 5602 5608 5615 5622 5629 5634 5640 5646 5653 5659 5664 5670 5676
5649 5642 5634 5627 5621 5614 5608 5602 5597 5591 5586 5582 5577 5574 5570 5568 5567 5567 5567 5567 5568 5570 5573 5578 5582 5586 5590 5595 5603 5611 5618 5624 5630 5636 5643 5649 5655 5661
5631 5624 5616 5609 5602 5595 5589 5583 5578 5572 5567 5563 5559 5555 5552 5550 5549 5549 5549 5550 5551 5553 5556 5560 5565 5569 5574 5580 5587 5595 5602 5609 5615 5621 5627 5635 5640 5647
5612 5605 5598 5591 5583 5576 5570 5564 5559 5554 5549 5544 5540 5537 5535 5533 5531 5531 5532 5532 5534 5536 5539 5544 5549 5554 5559 5565 5571 5579 5586 5593 5600 5606 5613 5620 5627 5633
Wind_Speed
16 15 15 14 12 11 10 10 8 8 8 8 9 11 12 14 16 17 19 21 22 24 26 27 28 29 29 29 29 29 30 30 29 28 28 28 27 26
17 16 16 15 14 13 13 12 11 10 10 11 12 13 13 15 17 18 19 21 22 24 26 28 29 30 31 31 31 31 31 31 31 30 29 29 29 28
17 17 17 16 16 16 15 14 13 13 12 13 14 15 16 17 18 20 21 22 23 24 25 27 29 31 32 32 33 33 33 33 33 32 31 30 30 30
17 17 17 17 17 17 17 17 16 16 16 16 17 17 18 19 20 21 23 24 25 26 27 28 29 31 32 32 33 34 35 35 34 34 33 32 32 31
18 19 19 19 19 19 20 20 20 19 19 19 20 20 21 21 22 23 25 26 27 28 29 30 30 31 33 33 33 34 35 35 35 35 34 34 33 34
21 20 21 21 22 22 23 23 23 23 23 23 23 23 24 24 25 25 26 27 28 30 31 32 32 32 33 34 35 36 36 36 37 37 36 36 35 35
23 23 24 25 25 26 27 27 28 28 27 27 27 26 27 27 28 28 28 29 30 31 33 33 34 35 35 35 36 37 37 38 38 38 38 37 36 36
26 27 28 29 29 30 31 32 32 32 31 31 31 30 30 30 30 30 31 32 32 33 34 35 36 37 37 37 37 38 38 39 39 40 40 39 38 38
30 31 32 33 34 34 35 36 36 36 36 35 35 35 34 34 34 34 34 34 35 35 37 37 38 38 39 39 39 39 40 41 41 41 41 41 40 39
33 34 35 37 38 39 40 40 40 40 41 41 40 39 38 38 38 38 38 38 38 38 39 39 40 41 41 41 41 41 41 42 42 42 42 41 41 41
38 39 40 41 42 44 44 44 44 44 44 45 44 44 43 43 42 42 42 42 41 41 41 42 42 43 43 43 43 43 43 42 42 42 43 43 42 42
41 43 44 45 47 48 48 48 47 47 48 48 47 47 47 47 47 47 46 46 45 43 44 44 45 46 45 45 45 45 45 45 44 44 44 44 43 43
45 46 47 49 50 50 51 51 51 51 51 51 50 49 49 50 49 49 49 48 48 47 46 48 47 48 48 48 48 48 47 46 46 45 44 44 44 44
48 50 51 52 52 53 53 53 53 53 53 53 52 51 51 52 51 50 51 50 50 50 49 49 49 49 50 50 49 48 48 47 47 47 47 47 46 45
51 52 53 53 54 54 54 55 55 55 55 54 53 52 52 53 53 52 52 51 50 50 50 51 50 50 50 51 50 50 49 48 48 47 47 46 46 46
54 55 55 55 55 56 56 56 56 56 56 55 55 54 53 52 51 51 52 51 51 50 50 50 51 51 50 51 51 50 50 50 49 49 48 47 46 46
57 57 57 57 57 57 58 58 57 57 57 56 55 54 53 52 50 50 51 51 51 51 50 50 51 52 51 51 52 52 51 50 50 50 49 48 48 47
59 59 59 60 60 60 60 59 58 58 58 56 55 54 53 51 50 50 51 51 51 51 50 49 50 53 52 53 53 53 52 51 51 51 50 48 47 47
61 61 62 62 62 62 61 60 59 58 57 56 55 54 53 51 50 49 48 50 50 50 49 49 49 52 53 52 52 53 53 53 52 51 50 49 48 47
63 63 64 64 63 62 61 60 59 58 56 56 55 54 53 52 50 48 47 48 49 49 49 50 49 51 52 51 52 52 53 53 52 51 51 50 49 47
65 65 65 64 64 63 62 61 59 58 57 56 54 53 52 50 49 47 47 47 47 48 49 49 48 50 50 50 51 51 51 51 51 50 50 50 49 48
66 66 65 65 64 63 62 61 59 58 56 55 53 52 50 49 48 47 46 46 46 46 46 47 47 48 49 49 49 49 50 50 49 49 49 49 49 47
67 66 66 65 64 63 61 60 58 56 54 53 52 50 49 48 46 45 44 43 44 44 44 45 45 45 46 47 47 48 48 49 49 48 47 47 46 45
Wind_Direction
10 9 8 7 6 0 354 344 331 319 305 290 281 273 266 257 253 250 247 243 240 237 235 234 234 234 233 233 233 232 233 233 233 234 233 234 235 237
2 2 360 358 356 352 347 340 331 320 310 300 294 284 277 267 260 258 252 248 245 242 241 240 238 237 236 236 236 234 234 235 235 235 236 236 237 239
353 353 352 351 349 346 342 338 331 322 313 305 299 293 285 277 268 262 258 253 249 247 246 244 241 240 240 238 237 236 237 238 237 238 239 239 239 241
343 344 344 343 341 340 337 333 328 321 314 307 302 296 291 284 275 268 264 258 253 250 247 245 244 243 242 241 239 239 240 240 240 241 241 242 242 243
335 336 337 335 333 332 330 328 324 319 314 309 304 298 292 287 281 274 269 263 257 253 249 247 246 244 243 243 242 242 241 241 240 241 242 244 245 246
327 328 329 327 326 325 324 322 319 315 311 307 303 299 294 288 283 276 271 265 259 255 252 249 247 247 245 245 244 244 243 242 242 242 243 244 247 248
321 321 321 320 319 318 318 316 314 312 308 305 301 298 295 290 284 278 273 267 263 259 256 252 249 248 247 247 247 246 245 245 245 244 244 245 247 248
315 315 315 315 314 314 313 312 310 308 305 302 300 298 294 291 286 280 275 269 265 261 258 254 253 251 249 248 248 248 246 246 246 246 246 246 247 247
310 310 310 310 311 311 310 310 308 306 304 301 298 296 293 290 285 280 276 271 267 262 260 257 254 252 250 249 248 248 248 247 247 247 247 247 248 248
307 307 307 307 308 308 308 307 305 304 302 300 298 295 291 288 284 280 276 272 270 265 262 258 255 253 251 250 249 249 249 248 247 247 247 247 248 249
305 305 306 306 307 306 305 304 302 301 300 299 297 293 290 287 283 279 276 272 270 266 263 260 256 254 252 251 251 250 249 248 247 247 247 247 248 248
304 304 305 306 306 306 304 302 301 299 299 297 294 291 288 285 282 279 275 272 269 266 262 259 257 255 253 251 251 250 249 248 247 247 247 247 246 248
303 303 304 304 304 304 303 301 300 299 298 296 292 289 287 283 280 277 275 271 268 265 262 258 256 254 253 250 249 249 248 247 247 247 246 246 246 247
304 304 304 304 304 303 302 301 300 299 298 295 292 288 286 283 280 276 273 270 268 265 262 257 255 253 251 250 248 247 247 247 247 248 248 247 246 247
304 304 305 304 303 303 302 301 300 298 297 296 293 289 286 283 280 275 272 269 267 265 262 257 254 253 251 249 248 246 246 246 247 247 247 246 246 246
304 304 304 304 303 303 302 301 300 299 298 296 294 291 287 284 279 274 270 266 265 263 261 258 253 251 250 249 248 246 245 245 246 246 246 245 245 246
304 304 304 304 304 303 302 301 300 299 298 296 294 292 288 284 279 274 270 266 264 262 259 256 254 251 249 248 247 246 244 244 244 244 244 244 243 244
305 304 304 304 303 303 301 300 299 298 297 295 293 291 289 284 279 274 271 268 265 261 257 253 252 249 248 247 246 245 244 243 243 243 243 243 243 243
304 304 304 304 303 303 301 300 299 298 296 294 292 290 287 283 279 275 271 268 265 261 256 252 250 247 245 245 245 244 243 242 242 242 242 243 243 243
305 304 304 303 303 302 301 299 298 296 295 293 291 289 286 283 278 274 272 269 266 261 256 252 249 246 244 244 244 242 242 241 242 241 241 242 241 241
305 305 304 303 303 302 301 299 298 296 294 292 290 287 285 282 278 274 271 269 266 262 256 251 248 245 243 243 242 240 239 239 239 239 240 240 240 240
306 305 304 303 302 301 300 299 298 296 294 292 290 286 283 280 277 274 271 267 264 261 255 249 245 242 240 239 239 238 237 236 236 236 237 238 239 239
306 305 305 304 303 301 300 299 298 297 294 292 289 286 283 279 276 272 270 266 262 257 252 247 242 240 238 237 236 236 236 235 235 235 236 236 237 237